{"data":{"norad_id":67839,"intl_designator":"2026-033U","name":"STARLINK-36652","alt_names":[],"object_type":"PAYLOAD","status":"ACTIVE","operator":null,"country":"US","launch_date":"2026-02-16","launch_site_code":"AFETR","launch_vehicle":null,"mission":null,"orbit_class":"UNKNOWN","rcs_meters":null,"size_class":null,"mass_kg":null,"dimensions":null,"purposes":["comms"],"wikipedia_slug":null,"has_3d_model":false,"image_url":null,"decayed_at":null,"tle_current":{"epoch":"2026-05-25T03:06:48.083616Z","epoch_age_seconds":57783,"freshness":"FRESH","line1":"1 67839U 26033U   26145.12972319  .00013828  00000+0  51084-3 0  9991","line2":"2 67839  43.0001 195.4347 0001922 268.0500  92.0132 15.27593833 16360","mean_motion":15.27593833,"eccentricity":0.0001922,"inclination_deg":43.0001,"raan_deg":195.4347,"arg_perigee_deg":268.05,"mean_anomaly_deg":92.0132,"bstar":0.00051084,"rev_number":1636,"period_min":94.265895088881,"perigee_km":481.68896336722,"apogee_km":484.32638738043,"semimajor_km":6861.1446753738,"source":"CELESTRAK","updated_at":"2026-05-25T13:38:21.701289Z"}}}